Starlink 35894

operational
NORAD ID: 66500 Int'l Des: 2025-263 Owner: SPXS Country: US Constellation: starlink
NOTLE

About Starlink 35894

Description loading...

Live Position

Loading 3D Globe...

Upcoming Passes

Altitude History

Altitude vs Time

uPlot chart will show altitude changes over time

Two-Line Element Set

1 66500U 25263R 25338.75002315 -.02503403 00000-0 -29592-1 0 9996
2 66500 42.9987 172.0872 0001096 266.8038 284.6438 15.64006840 4355
Epoch: Dec 4, 2025 • Age: 11 hours

Current Status

Altitude 390.3 km
Velocity 7.68 km/s
Sub-Earth Point -29.13°S, 20.38°W
Launch Date Nov 15, 2025
Age 19 days
Type internet

Technical Details

Classification Payload
Mass 575.00 kg
Dry Mass 530.00 kg
Total Mass 575.00 kg
Length 0.30 m
Diameter 4.10 m
Span 29.00 m
Shape Box + pan
Manufacturer SPXS
Bus Type Starlink V2MO
Phase Status In Orbit
Owner/State SPXS/US

Large Constellations

Loading constellations...